Location: Zagreb
(45.8150°N, 15.9819°E)
Time: 19:00:51
(UTC+01:00)

STARLINK-1713 - Pass Details

Date: 21 September 2020
Orbit: 378 x 381 km, 53.0° (Epoch: 27 October)

Event Time Altitude Azimuth Distance (km) Brightness Sun altitude
Exits shadow 04:55:35 23° 336° (NNW) 872 4.6 -18.9°
Maximum altitude 04:56:00 24° 350° (N) 852 4.7 -18.9°
Drops below altitude 10° 04:58:37 10° 46° (NE) 1,400 6.7 -18.4°
Sets 05:00:55 0° 62° (ENE) 2,253 8.4 -18.1°
